Wind_Speed
14 27 32 36 33 41 40 37 33 29 27 24 18 12 12 12 12 10 13 13 14 10 7 7 5 5 4 7 7 9 14 16 15 11 21 19 10 15 10 15 16 20 18
12 16 26 31 36 40 38 36 31 29 25 20 16 13 16 14 12 13 13 14 11 9 7 6 2 2 6 5 8 12 15 14 15 18 17 4 14 7 12 21 24 18 17
15 12 18 31 31 30 34 33 31 28 23 17 14 13 13 17 16 15 14 16 14 9 6 5 4 1 2 5 10 12 14 19 20 16 10 3 3 6 8 17 10 16 18
13 13 16 26 31 29 33 31 30 27 22 20 22 21 23 23 21 19 19 19 13 11 7 6 6 8 5 5 6 9 12 16 18 19 20 16 10 2 4 3 17 15 14
18 16 16 26 31 36 33 31 28 22 23 25 25 24 23 22 25 23 22 19 15 11 7 7 5 5 1 5 10 14 17 19 21 20 15 12 10 12 5 5 2 16 16
15 15 24 29 34 36 34 30 27 24 24 29 27 25 20 20 22 25 24 18 14 12 10 8 4 1 6 9 12 15 16 18 20 22 23 12 6 5 7 4 6 10 15
9 11 14 19 23 28 31 29 29 27 31 27 26 19 21 21 22 24 21 16 15 11 4 1 4 7 10 13 15 16 17 19 20 14 9 8 8 13 10 10 8 4 13
11 14 15 19 22 27 27 27 28 31 32 25 22 19 19 19 17 13 14 12 6 2 2 4 8 11 14 14 16 16 14 10 12 11 11 12 11 12 11 11 6 4 6
8 11 14 21 24 28 28 26 29 33 30 24 21 21 19 16 13 13 12 10 5 5 4 5 8 11 11 12 10 8 10 14 12 10 7 6 8 7 9 12 13 9 6
8 8 12 22 26 26 23 18 19 28 26 24 25 24 20 14 14 11 4 4 9 9 6 7 8 8 9 7 8 11 11 9 7 8 9 9 11 11 11 10 11 11 10
9 8 11 24 29 26 23 20 16 25 25 26 22 19 15 15 12 5 5 11 7 6 5 6 8 9 9 11 13 15 11 11 13 9 8 10 8 9 11 10 10 11 14
11 10 16 23 27 31 30 28 22 27 26 24 19 17 16 11 7 8 10 10 13 8 5 6 8 9 9 8 10 12 11 9 7 8 10 7 9 12 11 11 11 15 18
11 11 13 20 24 27 29 29 26 28 25 23 19 13 12 8 10 10 11 14 9 6 5 8 10 12 11 8 13 11 11 6 4 6 10 13 12 10 10 12 17 16 16
14 14 13 18 24 25 27 31 30 30 25 20 15 11 12 13 5 10 11 8 5 5 8 10 12 15 14 10 11 10 10 8 8 10 13 13 7 9 14 15 13 11 12
7 9 10 8 19 22 22 24 30 29 26 19 12 11 14 8 10 1 9 6 7 9 13 13 13 12 9 8 11 12 10 10 9 10 10 9 10 13 13 8 9 9 13
7 7 10 13 17 22 25 28 30 28 20 14 10 17 16 6 9 12 5 6 12 12 10 9 12 14 12 11 13 12 12 10 9 11 9 12 10 11 8 4 7 11 16
8 6 7 11 19 24 29 29 29 22 17 19 18 12 5 5 2 2 6 10 14 14 14 12 15 18 16 14 14 14 13 11 9 9 10 9 9 13 12 14 17 19 21
8 7 6 9 20 26 27 28 26 27 23 19 15 10 9 2 2 3 11 12 12 13 14 14 15 15 14 13 15 15 12 11 10 11 9 10 14 13 13 15 17 22 19
7 12 19 22 24 26 29 31 27 25 22 17 17 15 11 10 8 9 9 13 16 14 14 15 16 12 12 13 13 15 14 11 11 12 12 11 12 13 12 16 20 22 20
24 25 27 29 31 28 30 30 24 27 23 20 13 11 10 7 11 16 15 15 16 21 19 16 13 14 15 14 13 14 13 14 14 12 10 11 12 11 13 17 18 16 16
26 30 33 30 27 29 32 28 26 22 19 14 10 1 8 15 16 14 15 19 18 17 19 20 15 14 15 14 15 16 17 19 15 13 14 14 13 11 13 16 13 13 13
25 27 29 27 27 27 29 23 21 15 9 1 6 10 12 14 16 17 20 20 17 20 21 15 13 13 15 16 16 17 19 19 16 16 15 14 14 16 17 13 12 13 14
24 24 25 22 21 23 19 15 8 4 3 4 9 13 14 13 15 19 17 15 18 20 25 17 15 16 16 16 15 17 17 21 19 19 17 13 13 15 17 15 15 15 17
18 20 20 16 13 9 9 8 3 5 6 8 10 13 15 16 13 17 16 18 18 11 11 14 18 19 18 18 20 19 16 16 18 21 19 17 16 15 15 15 12 12 11
15 14 13 11 12 9 6 7 7 8 10 12 14 15 14 16 16 15 15 14 14 15 16 18 19 22 23 23 20 19 18 17 18 18 19 19 16 18 16 15 14 12 12
13 14 11 7 4 5 6 6 9 11 15 15 15 18 19 18 19 21 23 18 18 18 17 22 22 25 27 26 20 19 19 18 16 16 19 20 18 18 20 18 15 13 13
Wind_Direction
164 160 160 149 145 158 163 166 166 170 169 168 169 175 185 171 166 158 148 135 127 130 122 137 129 117 68 24 10 6 347 340 338 332 337 332 325 330 324 351 347 347 351
153 154 151 149 150 160 165 170 174 172 176 180 181 194 188 174 169 155 142 137 147 154 179 192 190 313 339 2 348 344 335 331 337 332 332 341 317 306 315 310 316 330 333
163 159 141 149 152 159 167 176 177 180 183 188 187 170 161 155 160 159 157 164 170 175 182 174 178 319 307 318 331 334 333 325 329 326 315 321 279 314 303 311 308 315 327
170 166 157 151 156 163 170 174 177 182 188 188 181 177 170 170 180 176 175 178 177 177 195 222 273 304 297 330 343 330 331 332 329 323 314 280 293 278 310 228 300 308 307
168 170 163 142 160 159 170 184 188 191 185 192 189 182 185 185 183 184 178 184 187 200 216 236 231 173 77 335 327 326 326 321 313 312 302 280 276 288 265 300 281 301 295
166 167 166 149 158 170 175 182 187 190 194 186 190 186 191 176 178 183 174 182 201 191 165 162 178 305 326 330 325 319 315 316 313 308 301 270 248 267 283 288 286 283 300
139 146 148 155 155 163 176 183 193 199 185 184 184 180 166 160 150 163 166 152 133 115 99 302 321 329 326 319 315 317 321 320 314 321 314 300 291 289 275 290 285 289 307
140 153 157 160 161 173 181 189 190 176 178 173 169 169 160 155 155 154 147 121 115 96 255 306 319 314 313 315 319 321 325 347 342 344 338 326 314 290 283 259 291 300 284
140 149 156 154 162 174 181 189 169 172 176 175 175 165 164 165 169 155 159 163 174 198 245 300 309 313 313 318 314 327 325 327 335 339 344 330 336 335 316 300 283 274 296
150 150 147 151 159 158 166 173 169 175 176 179 176 165 161 166 158 156 156 274 227 198 236 288 300 305 303 289 312 333 335 334 346 341 336 329 321 310 309 334 349 7 348
172 166 156 160 164 165 173 188 201 176 172 169 161 163 162 163 168 187 168 184 213 249 250 284 294 299 285 287 307 326 317 310 322 328 334 329 347 333 339 334 326 343 347
177 171 166 168 170 175 182 190 181 175 166 164 157 160 161 165 159 171 198 231 223 225 264 286 294 290 271 283 308 313 314 301 312 319 327 335 328 323 317 318 329 332 337
176 177 170 171 172 175 175 177 170 168 161 162 161 166 181 189 196 175 247 198 201 218 269 284 285 283 265 274 313 300 281 280 307 343 341 332 317 303 302 317 319 325 323
186 184 181 183 179 170 165 166 162 165 163 160 166 184 191 201 217 228 180 201 219 272 285 282 286 284 262 270 304 290 224 227 268 300 315 323 318 325 322 314 314 314 305
201 189 177 142 144 155 156 153 153 157 159 158 168 189 215 199 156 141 290 246 286 287 298 290 285 285 263 274 274 260 251 267 294 317 310 305 310 316 310 311 306 307 314
33 103 126 141 151 148 153 155 153 149 151 149 159 132 130 111 356 308 246 298 297 290 281 284 296 301 271 266 275 271 263 271 298 313 306 302 311 301 297 279 297 308 320
61 84 132 154 159 155 155 150 150 149 149 132 119 119 119 33 220 266 301 301 291 281 281 285 298 295 269 281 284 269 261 268 291 296 306 299 303 291 291 301 310 315 319
46 62 104 115 144 147 142 143 147 136 122 116 113 95 70 30 245 352 283 292 302 297 279 285 290 284 266 272 278 260 255 271 283 291 290 303 301 280 293 301 311 318 322
46 63 83 103 112 115 122 120 119 115 104 92 82 73 52 17 324 300 308 294 292 290 290 290 288 261 260 277 266 261 261 261 276 279 288 296 290 287 291 306 318 321 322
59 75 76 80 89 101 108 100 88 87 79 73 67 43 24 318 291 287 282 285 301 295 291 296 274 277 277 282 270 260 252 258 271 288 276 280 289 283 300 313 314 311 319
76 76 71 72 73 85 94 81 80 76 78 71 61 211 254 263 264 280 291 286 287 286 289 287 273 268 273 279 276 268 257 258 267 284 276 278 276 293 306 309 303 305 316
79 80 78 73 75 79 84 80 80 86 90 235 254 237 257 278 291 291 289 277 279 287 286 270 274 264 272 276 271 272 268 257 259 272 277 279 261 280 298 300 303 299 301
81 81 86 83 80 83 86 102 137 171 243 278 272 290 300 296 286 287 292 292 291 284 289 261 274 280 278 276 268 265 263 259 258 265 269 272 269 280 297 292 292 291 292
78 86 88 95 108 103 92 84 68 333 307 294 293 291 290 295 289 295 295 299 300 294 282 275 273 279 275 269 269 275 256 254 255 260 257 263 269 286 290 288 289 286 286
101 92 86 73 62 42 11 329 306 300 296 294 295 293 288 291 293 290 294 294 296 304 298 291 292 284 274 272 278 267 257 254 259 261 257 253 265 286 283 272 276 285 281
70 63 56 47 16 341 339 323 305 295 293 283 280 288 290 285 286 288 291 290 294 298 291 288 289 290 284 281 268 263 262 257 248 246 244 255 267 274 277 275 270 280 276
Height
784 787 792 800 807 811 814 820 826 831 834 837 840 842 845 847 850 852 853 853 854 858 861 865 866 865 865 865 865 866 865 864 863 860 858 856 856 857 856 856 855 854 853
784 787 791 798 803 808 813 819 824 827 831 835 838 842 843 846 848 850 852 852 855 859 861 863 863 863 863 864 864 864 864 863 862 860 857 854 853 853 854 853 852 852 851
782 785 790 797 803 808 812 817 821 826 829 834 838 841 842 845 848 850 850 852 855 857 860 861 861 861 862 863 863 863 862 860 860 860 859 855 854 850 849 851 850 849 847
780 782 786 794 800 807 813 818 820 824 827 832 835 837 838 841 843 845 848 851 855 858 859 859 859 860 861 861 861 861 860 859 857 857 856 854 852 850 847 846 846 845 844
773 779 784 789 796 803 810 815 818 822 825 829 832 834 836 837 839 843 847 850 852 855 857 857 857 858 859 859 858 858 857 856 854 853 850 849 848 847 846 840 841 842 841
770 776 781 787 793 797 805 811 816 819 823 826 829 831 833 835 837 840 845 848 851 851 852 854 855 856 857 856 855 854 854 853 852 850 848 846 845 845 845 841 837 836 836
770 776 780 785 791 796 800 805 812 816 820 824 827 829 831 834 836 840 843 846 849 849 853 854 853 852 852 853 853 852 852 852 850 848 847 846 845 844 842 842 839 836 833
768 773 777 782 786 791 797 802 808 812 817 821 824 827 829 833 836 838 839 842 846 848 850 850 850 851 852 852 852 851 850 848 847 846 845 845 843 845 842 841 839 835 831
768 772 776 779 785 790 795 800 804 809 814 818 821 824 827 830 833 836 838 839 841 844 847 848 849 850 852 851 849 848 847 846 845 843 841 840 840 840 839 839 836 833 831
769 772 775 779 785 789 795 800 805 809 813 815 818 821 825 829 832 836 840 842 843 841 842 845 848 849 850 848 846 845 844 842 841 840 839 838 837 837 836 835 834 832 831
769 772 775 778 783 788 794 799 804 808 811 814 818 822 825 828 832 833 837 839 845 846 844 844 845 846 846 844 843 843 842 840 839 837 835 835 834 834 833 832 831 829 828
762 767 771 776 780 785 790 796 802 805 809 813 817 822 825 828 831 835 838 840 841 842 843 844 844 844 842 840 839 839 838 837 836 834 833 831 831 832 830 827 827 826 824
757 761 766 770 775 780 785 791 798 803 807 811 816 821 825 829 832 834 838 839 838 840 839 841 841 840 838 837 836 835 836 835 835 833 830 829 827 826 827 825 823 821 820
750 754 758 762 767 773 780 783 789 797 805 810 814 820 824 829 831 835 837 837 837 838 838 837 837 836 834 833 833 831 830 830 829 828 827 825 825 824 823 821 820 818 816
750 751 754 761 768 774 781 786 790 796 802 807 813 817 823 828 832 834 838 837 837 838 837 835 833 832 831 831 830 830 829 828 827 824 823 824 821 820 819 818 817 815 813
750 752 755 759 766 772 779 784 789 793 801 807 813 817 823 828 829 836 837 836 837 836 835 834 832 830 828 827 826 826 826 826 824 823 822 820 817 817 816 815 814 812 810
756 755 759 761 766 770 775 781 789 795 801 806 811 815 819 824 830 832 832 835 834 832 830 829 828 826 824 825 823 821 820 820 819 819 816 817 816 814 813 811 809 808 805
758 759 760 763 767 771 778 783 790 796 801 806 810 815 821 824 827 829 831 830 829 828 826 824 822 821 820 819 819 818 817 817 817 817 814 811 813 811 809 807 804 803 800
761 762 764 767 772 776 781 784 793 798 803 808 812 819 824 825 827 828 827 826 824 823 821 820 818 817 816 815 815 814 812 812 812 813 811 808 809 807 805 803 800 797 795
769 771 774 776 779 785 786 791 798 802 807 811 816 821 823 825 824 823 821 821 821 819 817 815 814 813 811 810 810 809 808 808 807 808 805 806 806 804 802 799 797 794 792
779 780 781 786 791 792 791 797 802 807 810 815 818 820 821 820 817 818 818 817 815 814 813 810 809 808 807 805 805 805 804 803 803 802 802 803 802 800 798 796 794 792 790
786 787 789 795 798 799 799 804 807 811 813 814 814 815 815 815 816 815 813 812 811 809 808 806 804 803 803 801 799 799 799 800 798 797 798 798 798 796 794 792 790 788 787
793 795 796 800 802 804 805 807 808 809 810 812 814 815 814 813 812 811 809 808 806 804 802 800 799 797 797 796 794 793 794 794 793 793 794 794 793 791 790 788 786 785 783
799 800 801 802 804 805 807 808 810 811 811 811 812 812 811 810 809 807 805 803 802 800 798 796 794 792 791 790 789 788 788 787 786 787 788 788 788 787 785 783 782 780 779
802 803 805 807 808 810 811 811 811 811 811 810 810 809 808 806 804 803 802 800 798 796 794 792 789 787 784 783 783 782 781 781 781 781 782 783 782 781 779 779 777 776 775
808 809 809 811 811 812 812 812 811 810 809 808 807 806 804 802 800 798 795 795 792 790 789 787 784 781 778 776 776 776 776 775 776 775 776 776 776 775 774 773 773 772 771